Location: Milton Keynes
(52.0316°N, 0.7531°W)
Time: 21:10:08
(UTC+00:00)

ISS - Pass Details

Date: 01 February 2019
Orbit: 403 x 411 km, 51.6° (Epoch: 23 February)

Event Time Altitude Azimuth Distance (km) Brightness Sun altitude
Rises 17:51:07 0° 264° (W) 2,333 2.1 -9.5°
Reaches altitude 10° 17:53:12 10° 264° (W) 1,474 0.6 -9.8°
Maximum altitude 17:56:30 85° 176° (S) 417 -3.8 -10.3°
Enters shadow 17:59:02 16° 89° (E) 1,158 -2.2 -10.7°
